Location: Morine Place
(33.9195°N, 107.5900°W)
Time: 20:18:13
(UTC+00:00)

Envisat - Visible Passes

Search period start: 19 November 2019 00:00
Search period end: 29 November 2019 00:00
Orbit: 764 x 766 km, 98.1° (Epoch: 19 November)

Date Brightness Start Highest point End Pass type
(mag) Time Alt. Az. Time Alt. Az. Time Alt. Az.
19 Nov 3.7 00:33:33 10° SE 00:38:00 32° ENE 00:42:27 10° N visible
19 Nov 5.3 02:12:54 10° SSW 02:16:58 24° W 02:21:03 10° NW visible
19 Nov 6.1 12:47:31 10° ENE 12:50:18 15° E 12:53:05 10° SE visible
20 Nov 3.6 01:35:05 10° S 01:40:04 58° W 01:45:05 10° NNW visible
21 Nov 3.0 00:58:23 10° SSE 01:03:20 58° ENE 01:08:20 10° N visible
21 Nov 6.1 02:40:28 10° WSW 02:42:40 13° W 02:44:52 10° WNW visible
21 Nov 5.5 13:11:41 10° NE 13:15:59 27° E 13:20:15 10° SSE visible
22 Nov 4.8 02:01:11 10° SSW 02:05:38 31° W 02:10:07 10° NW visible
22 Nov 6.5 12:37:36 10° ENE 12:38:55 11° E 12:40:15 10° ESE visible
23 Nov 3.1 01:23:43 10° S 01:28:47 76° WSW 01:33:52 10° NNW visible
24 Nov 3.3 00:47:19 10° SE 00:52:07 45° ENE 00:56:56 10° N visible
24 Nov 5.8 02:28:05 10° SW 02:31:18 17° W 02:34:31 10° NW visible
24 Nov 5.9 13:00:49 10° NE 13:04:39 21° E 13:08:27 10° SE visible
25 Nov 4.3 01:49:34 10° SSW 01:54:19 40° W 01:59:06 10° NNW visible
26 Nov 2.9 01:12:27 10° SSE 01:17:31 84° ENE 01:22:37 10° N visible
26 Nov 4.7 13:25:32 10° NNE 13:30:16 39° E 13:34:59 10° SSE visible
27 Nov 3.6 00:36:21 10° SE 00:40:54 35° ENE 00:45:29 10° N visible
27 Nov 5.4 02:16:05 10° SW 02:19:57 22° W 02:23:49 10° NW visible
27 Nov 6.0 12:50:09 10° NE 12:53:17 16° E 12:56:25 10° SE visible
28 Nov 3.8 01:38:05 10° S 01:43:01 52° W 01:47:58 10° NNW visible
